Regional Weather Roundup
Issued by NWS

Home | Current Version | Previous Version | Text Only | Print | Product List | Glossary Off
Versions: 1 2 3 4 5 6 7 8 9 10 11 12 13 14 15 16 17 18 19 20 21 22 23 24 25 26 27 28 29 30 31 32 33 34 35 36 37 38 39 40 41 42 43 44 45 46 47 48 49 50

000
ASUS43 KOAX 020602
RWRNE

WEATHER ROUNDUP FOR NEBRASKA
NATIONAL WEATHER SERVICE OMAHA NE
100 AM CDT THU APR 02 2015

NOTES: SATELLITE DATA IS BEING USED TO AUGMENT CLOUD COVER ABOVE
       12000 FEET.
       "FAIR" INDICATES FEW OR NO CLOUDS BELOW 12,000 FEET WITH NO
       SIGNIFICANT WEATHER AND/OR OBSTRUCTIONS TO VISIBILITY.

  * THESE STATIONS DO NOT REPORT WEATHER SUCH AS RAIN...SNOW OR FOG.

NEZ001>004-019>022-054>056-020700-
NEBRASKA PANHANDLE

CITY           SKY/WX    TMP DP  RH WIND       PRES   REMARKS
SCOTTSBLUFF    CLEAR     34  23  64 NW9       29.91R WCI  27
6HR MIN TEMP:  34; 6HR MAX TEMP:  53;

ALLIANCE       CLEAR     27  20  75 NW6       29.87S WCI  20
6HR MIN TEMP:  27; 6HR MAX TEMP:  53;

CHADRON        CLEAR     33  23  66 SW3       29.87F
6HR MIN TEMP:  31; 6HR MAX TEMP:  55;

SIDNEY         PTCLDY    38  24  57 NW12      29.90R WCI  30
6HR MIN TEMP:  38; 6HR MAX TEMP:  60; 6HR PCP: TRACE;

$$

NEZ057>060-069>072-079>082-020700-
SOUTHWEST NEBRASKA

CITY           SKY/WX    TMP DP  RH WIND       PRES   REMARKS
NORTH PLATTE   CLOUDY    53  22  29 NE8       29.86R
6HR MIN TEMP:  53; 6HR MAX TEMP:  66;

IMPERIAL       CLOUDY    47  37  68 N15       29.83R
6HR MIN TEMP:  47; 6HR MAX TEMP:  71; 6HR PCP:  0.07;

MCCOOK         CLOUDY    60  33  36 N17G25    29.82R
6HR MIN TEMP:  58; 6HR MAX TEMP:  78; 6HR PCP: TRACE;

$$

NEZ005>010-023>029-035>040-094-020700-
NORTH CENTRAL NEBRASKA

CITY           SKY/WX    TMP DP  RH WIND       PRES   REMARKS
VALENTINE      CLOUDY    47  19  33 NW3       29.83R
6HR MIN TEMP:  47; 6HR MAX TEMP:  63;

BROKEN BOW     CLOUDY    55  23  28 N15G26    29.82F
6HR MIN TEMP:  55; 6HR MAX TEMP:  67;

ORD            CLOUDY    54  22  28 N9        29.81F
6HR MIN TEMP:  54; 6HR MAX TEMP:  67;

$$

NEZ041-046>049-061>064-073>077-083>087-020700-
SOUTH CENTRAL NEBRASKA

CITY           SKY/WX    TMP DP  RH WIND       PRES   REMARKS
GRAND ISLAND   LGT RAIN  53  38  56 N18       29.76F
6HR MIN TEMP:  53; 6HR MAX TEMP:  80; 6HR PCP:  0.03;

HASTINGS       CLOUDY    53  41  63 N20       29.76S
6HR MIN TEMP:  53; 6HR MAX TEMP:  80; 6HR PCP:  0.10;

KEARNEY *      CLOUDY    54  32  43 N22       29.78R
$$

NEZ011>018-030>034-042>045-020700-
NORTHEAST NEBRASKA

CITY           SKY/WX    TMP DP  RH WIND       PRES   REMARKS
NORFOLK        CLOUDY    57  35  43 N10       29.80S
6HR MIN TEMP:  57; 6HR MAX TEMP:  65; 6HR PCP:  0.03;

COLUMBUS *     CLOUDY    55  43  62 N8        29.80R
TEKAMAH        LGT RAIN  56  53  90 W8        29.76R
6HR MIN TEMP:  56; 6HR MAX TEMP:  82; 6HR PCP:  0.91;

$$

NEZ050>053-065>068-078-088>093-020700-
SOUTHEAST NEBRASKA

CITY           SKY/WX    TMP DP  RH WIND       PRES   REMARKS
LINCOLN        LGT RAIN  56  52  86 N16       29.72R
6HR MIN TEMP:  55; 6HR MAX TEMP:  81; 6HR PCP:  0.42;

OMAHA EPPLEY   LGT RAIN  56  55  97 NW7       29.73R FOG
6HR MIN TEMP:  56; 6HR MAX TEMP:  81; 6HR PCP:  0.74;

FALLS CITY     CLOUDY    63  52  67 N17G28    29.67R
6HR MIN TEMP:  61; 6HR MAX TEMP:  77;

$$

NEZ044-045-051>053-067-020700-
OMAHA AREA

CITY           SKY/WX    TMP DP  RH WIND       PRES   REMARKS
OMAHA EPPLEY   LGT RAIN  56  55  97 NW7       29.73R FOG
6HR MIN TEMP:  56; 6HR MAX TEMP:  81; 6HR PCP:  0.74;

OFFUTT AFB     HVY RAIN  57  55  94 N12       29.71R FOG
$$


USA.gov is the U.S. government's official web portal to all federal, state and local government web resources and services.